IZ2XSB-13 Weather Reports


time (UTC)temp
C
wind
direction
speed
KPH
gust
KPH
rain 1hr
cm
rain 24hr
cm
rain mn
cm
humidity
%
barometer
mb
20260507192813 13 262 3.2 4.8 0.00 0.51 0.05 73 1014.9
20260507192327 13 312 0.0 3.2 0.00 0.51 0.05 74 1014.7
20260507191827 13 315 0.0 3.2 0.00 0.51 0.05 74 1014.7
20260507191347 13 315 0.0 3.2 0.00 0.51 0.05 74 1014.7
20260507190826 13 309 0.0 3.2 0.00 0.51 0.05 74 1014.6
20260507190345 13 292 0.0 4.8 0.00 0.51 0.05 74 1014.5
20260507185821 14 286 0.0 3.2 0.00 0.51 0.05 73 1014.6
20260507185338 14 286 0.0 4.8 0.00 0.51 0.05 74 1014.5
20260507184817 14 286 1.6 6.4 0.00 0.51 0.05 74 1014.5
20260507184314 14 257 4.8 6.4 0.00 0.51 0.05 72 1014.4
20260507183815 14 287 3.2 8.0 0.00 0.51 0.05 73 1014.3
20260507183333 14 336 3.2 9.7 0.00 0.51 0.05 73 1014.2
20260507182831 14 334 6.4 9.7 0.00 0.51 0.05 74 1014.3
20260507182350 14 55 3.2 4.8 0.00 0.51 0.05 72 1014.1
20260507181830 15 53 1.6 4.8 0.00 0.51 0.05 73 1014.2
20260507181329 15 302 3.2 4.8 0.00 6.20 0.05 69 1014.1
20260507180829 15 306 3.2 6.4 0.00 6.20 0.05 70 1014.0
20260507180348 15 300 3.2 9.7 0.00 6.20 0.05 71 1014.0
20260507175826 15 278 6.4 9.7 0.00 6.20 0.05 71 1013.9
20260507175325 15 284 4.8 9.7 0.00 6.20 0.05 70 1013.9
20260507174824 15 258 6.4 9.7 0.00 6.20 0.05 71 1013.8
20260507174324 15 273 4.8 6.4 0.00 6.20 0.05 69 1013.8
20260507173822 15 267 3.2 6.4 0.00 6.20 0.05 69 1013.7
20260507173321 15 279 4.8 8.0 0.00 6.20 0.05 70 1013.8
20260507172841 15 286 4.8 9.7 0.00 6.20 0.05 70 1013.8
20260507172319 15 286 1.6 4.8 0.00 6.20 0.05 69 1013.7
20260507171839 15 284 3.2 4.8 0.00 6.20 0.05 74 1013.7
20260507171319 15 242 1.6 6.4 0.00 6.30 0.05 73 1013.7
20260507170817 15 194 3.2 6.4 0.00 6.30 0.05 71 1013.5
20260507170317 15 333 1.6 4.8 0.00 6.30 0.05 69 1013.4
20260507165816 15 18 3.2 4.8 0.00 6.30 0.05 69 1013.6
20260507165316 15 269 0.0 3.2 0.00 6.30 0.05 71 1013.4
20260507164815 15 294 1.6 4.8 0.00 6.30 0.05 70 1013.5
20260507164313 15 306 1.6 6.4 0.00 6.30 0.05 71 1013.4
20260507163834 15 248 3.2 6.4 0.00 6.30 0.05 71 1013.4
20260507163348 15 250 4.8 8.0 0.00 6.30 0.05 70 1013.5
20260507162828 15 237 4.8 8.0 0.00 6.30 0.05 70 1013.5
20260507162326 16 142 3.2 4.8 0.00 6.30 0.05 69 1013.5
20260507161825 16 331 1.6 4.8 0.00 6.30 0.05 67 1013.5
20260507161324 16 12 1.6 4.8 0.00 6.30 0.05 66 1013.5
20260507160823 16 355 3.2 4.8 0.00 6.30 0.05 63 1013.4
20260507160321 16 325 1.6 4.8 0.00 6.30 0.05 63 1013.5
20260507155821 16 340 1.6 4.8 0.00 6.30 0.05 65 1013.5
20260507155321 16 312 1.6 6.4 0.00 6.30 0.05 65 1013.5
20260507154818 17 142 3.2 6.4 0.00 6.30 0.05 62 1013.5
20260507154316 16 76 1.6 4.8 0.00 6.30 0.05 63 1013.4
20260507153815 16 79 1.6 6.4 0.00 6.30 0.05 63 1013.4
20260507153315 16 96 3.2 6.4 0.00 6.30 0.05 66 1013.3
20260507152814 16 87 1.6 4.8 0.00 6.30 0.05 68 1013.4
20260507152333 16 141 3.2 4.8 0.00 6.30 0.05 70 1013.3
20260507151831 16 229 1.6 4.8 0.00 6.30 0.05 67 1013.3
20260507151331 16 249 1.6 3.2 0.00 6.30 0.05 66 1013.4
20260507150851 16 265 1.6 4.8 0.00 6.30 0.05 70 1013.4
20260507150329 15 237 1.6 8.0 0.00 6.30 0.05 73 1013.4
20260507145828 15 213 4.8 8.0 0.00 6.30 0.05 70 1013.4
20260507145329 15 244 3.2 6.4 0.00 6.30 0.05 70 1013.5
20260507144829 15 255 3.2 4.8 0.00 6.30 0.05 69 1013.4
20260507144330 15 338 1.6 4.8 0.00 6.30 0.05 69 1013.4
20260507143829 15 314 1.6 4.8 0.00 6.30 0.05 70 1013.4
20260507143328 15 252 3.2 6.4 0.00 6.30 0.05 68 1013.5
20260507142827 15 249 4.8 6.4 0.00 6.30 0.05 70 1013.5
20260507142347 15 240 3.2 6.4 0.00 6.30 0.05 69 1013.5
20260507141845 15 210 1.6 3.2 0.00 6.30 0.05 71 1013.5
20260507141324 15 132 1.6 3.2 0.00 6.30 0.05 69 1013.5
20260507140823 15 132 1.6 6.4 0.00 6.30 0.05 68 1013.5
20260507140342 15 95 1.6 6.4 0.00 6.30 0.05 69 1013.6
20260507135820 15 62 4.8 6.4 0.00 6.30 0.05 67 1013.6
20260507135319 15 80 1.6 9.7 0.00 6.30 0.05 66 1013.7
20260507134819 15 61 4.8 11.3 0.00 6.30 0.05 66 1013.6
20260507134319 15 30 3.2 8.0 0.00 6.30 0.05 66 1013.7
20260507133818 15 19 3.2 9.7 0.00 6.30 0.05 67 1013.7
20260507133320 15 23 8.0 11.3 0.00 6.30 0.05 67 1013.7
20260507132818 16 92 4.8 9.7 0.00 6.30 0.05 68 1013.7
20260507132316 16 56 4.8 14.5 0.00 6.30 0.05 67 1013.9
20260507131815 16 34 8.0 16.1 0.00 6.30 0.05 68 1013.9
20260507131314 16 47 9.7 16.1 0.00 6.30 0.05 66 1013.8
20260507130834 16 69 9.7 16.1 0.00 6.30 0.05 69 1013.8
20260507130314 16 37 8.0 14.5 0.00 6.30 0.05 69 1013.7
20260507125832 16 82 6.4 12.9 0.00 6.30 0.05 68 1013.7
20260507125332 16 121 8.0 12.9 0.00 6.30 0.05 66 1013.5
20260507124830 16 63 8.0 12.9 0.00 6.30 0.05 70 1013.6
20260507124349 16 101 6.4 12.9 0.00 6.30 0.05 70 1013.5
20260507123827 16 83 6.4 12.9 0.00 6.30 0.05 70 1013.7
20260507123326 15 83 4.8 9.7 0.00 6.30 0.05 70 1013.8
20260507122846 15 115 6.4 11.3 0.00 6.30 0.05 70 1013.7
20260507122325 16 126 6.4 12.9 0.00 6.30 0.05 70 1013.7
20260507121824 16 109 8.0 12.9 0.00 6.30 0.05 70 1013.7
20260507121323 16 30 6.4 12.9 0.00 6.40 0.05 69 1013.7
20260507120823 16 83 6.4 12.9 0.00 6.40 0.05 69 1013.9
20260507120321 15 144 8.0 12.9 0.00 6.40 0.05 70 1013.9
20260507115817 16 98 8.0 12.9 0.00 6.40 0.05 72 1014.0
20260507115315 15 93 4.8 16.1 0.00 6.40 0.05 71 1013.9
20260507114814 15 82 9.7 16.1 0.00 6.40 0.05 71 1013.9
20260507114329 15 110 4.8 14.5 0.00 6.40 0.05 72 1013.8
20260507113828 15 103 6.4 14.5 0.00 6.40 0.05 72 1013.9
20260507113326 15 57 8.0 14.5 0.00 6.40 0.05 72 1013.9
20260507112826 15 117 6.4 16.1 0.00 6.40 0.05 73 1013.9
20260507112326 15 107 11.3 19.3 0.00 6.40 0.05 72 1013.9
20260507111824 15 97 11.3 20.9 0.00 6.40 0.05 71 1013.9
20260507111325 15 131 14.5 20.9 0.00 12.80 0.05 72 1013.9
20260507110823 15 122 11.3 19.3 0.00 12.80 0.05 72 1014.1
20260507110325 15 105 11.3 17.7 0.00 12.80 0.05 73 1014.1
20260507105824 15 86 4.8 12.9 0.00 12.80 0.05 76 1014.2
20260507105322 14 69 3.2 9.7 0.00 12.80 0.05 73 1014.3
20260507104823 13 103 4.8 9.7 0.00 12.80 0.05 75 1014.2
20260507104322 13 89 4.8 11.3 0.00 12.80 0.05 73 1014.2
20260507103821 13 91 4.8 12.9 0.00 12.80 0.05 74 1014.3
20260507103322 13 120 8.0 14.5 0.00 12.80 0.05 74 1014.3
20260507102821 13 51 3.2 14.5 0.00 12.80 0.05 74 1014.3
20260507102321 13 50 6.4 12.9 0.00 12.80 0.05 72 1014.3
20260507101821 14 153 6.4 14.5 0.00 12.80 0.05 72 1014.3
20260507101321 14 109 9.7 17.7 0.00 14.71 0.05 72 1014.3
20260507100820 15 149 11.3 17.7 0.00 14.71 0.05 71 1014.3
20260507100339 15 103 12.9 17.7 0.00 14.71 0.05 71 1014.3
20260507095838 15 102 4.8 9.7 0.00 14.71 0.05 72 1014.3
20260507095334 14 83 3.2 11.3 0.00 14.71 0.05 75 1014.2
20260507094836 14 109 6.4 11.3 0.00 14.71 0.05 71 1014.3
20260507094354 13 170 1.6 6.4 0.00 14.71 0.05 72 1014.3
20260507093833 13 146 3.2 4.8 0.00 14.71 0.05 73 1014.3
20260507093331 13 119 3.2 4.8 0.00 14.71 0.05 71 1014.3
20260507092830 13 132 3.2 6.4 0.00 14.71 0.05 73 1014.5
20260507092330 13 103 3.2 9.7 0.00 14.71 0.05 72 1014.4
20260507091829 13 91 6.4 9.7 0.00 14.71 0.05 70 1014.4
20260507091326 13 90 6.4 12.9 0.00 14.91 0.05 72 1014.3
20260507090844 13 109 8.0 12.9 0.00 14.91 0.05 71 1014.4
20260507090322 14 112 8.0 11.3 0.00 14.91 0.05 72 1014.3
20260507085819 13 114 3.2 9.7 0.00 14.91 0.05 72 1014.3
20260507085510 13 130 4.8 9.7 0.00 14.91 0.05 77 1014.3
20260507084830 12 134 3.2 9.7 0.00 14.91 0.05 79 1014.3
20260507084350 12 107 3.2 9.7 0.00 14.91 0.05 81 1014.2
20260507083828 12 135 4.8 6.4 0.00 14.91 0.05 80 1014.3
20260507083328 12 117 1.6 6.4 0.00 14.91 0.05 79 1014.3
20260507082848 12 112 3.2 9.7 0.00 14.91 0.05 84 1014.3
20260507082346 12 109 4.8 12.9 0.00 14.91 0.05 82 1014.2
20260507081823 12 118 8.0 12.9 0.00 14.91 0.05 83 1014.2
20260507081320 12 105 6.4 11.3 0.00 15.49 0.05 83 1014.1
20260507080817 12 138 3.2 6.4 0.00 15.49 0.05 84 1014.1
20260507080331 12 91 4.8 6.4 0.00 15.49 0.05 85 1014.0
20260507075828 11 117 1.6 4.8 0.00 15.49 0.05 85 1014.1
20260507075328 11 161 3.2 3.2 0.00 15.49 0.05 85 1014.0
20260507074828 11 141 1.6 4.8 0.00 15.49 0.05 86 1014.0
20260507074346 11 140 3.2 6.4 0.00 15.49 0.05 83 1014.0
20260507073822 11 110 4.8 6.4 0.00 15.49 0.05 85 1014.0
20260507073342 11 91 1.6 6.4 0.00 15.49 0.05 86 1014.0
20260507072840 11 136 1.6 9.7 0.00 15.49 0.05 85 1013.9
20260507072342 12 102 6.4 9.7 0.00 15.49 0.05 84 1014.1
20260507071820 11 113 1.6 3.2 0.00 15.49 0.05 85 1014.0
20260507071318 11 128 1.6 8.0 0.00 15.60 0.05 86 1014.0
20260507070818 11 156 3.2 8.0 0.00 15.60 0.05 88 1013.9
20260507070317 11 194 3.2 4.8 0.00 15.60 0.05 88 1013.8
20260507065818 11 134 0.0 4.8 0.00 15.60 0.05 87 1013.8
20260507065316 11 105 3.2 4.8 0.00 15.60 0.05 86 1013.9
20260507064816 11 112 3.2 4.8 0.00 15.60 0.05 86 1013.9
20260507064336 11 137 3.2 6.4 0.00 15.60 0.05 85 1013.7
20260507063814 11 109 4.8 8.0 0.00 15.60 0.05 82 1013.6
20260507063333 11 110 3.2 8.0 0.00 15.60 0.05 79 1013.7
20260507062833 11 169 1.6 9.7 0.00 15.60 0.05 79 1013.6
20260507062331 11 244 4.8 12.9 0.00 15.60 0.05 81 1013.6
20260507061830 10 252 8.0 14.5 0.00 15.60 0.05 81 1013.7
20260507061328 10 246 8.0 14.5 0.00 16.41 0.05 85 1013.6
20260507060828 10 254 6.4 12.9 0.00 16.41 0.05 87 1013.7
20260507060326 10 236 4.8 12.9 0.00 16.41 0.05 88 1013.7
20260507055823 10 243 9.7 12.9 0.00 16.41 0.05 84 1013.7
20260507055321 10 242 6.4 8.0 0.00 16.41 0.05 86 1013.7
20260507054841 10 229 3.2 8.0 0.00 16.41 0.05 86 1013.7
20260507054319 10 208 4.8 6.4 0.00 16.41 0.05 87 1013.5
20260507053820 10 13 0.0 4.8 0.00 16.41 0.05 83 1013.6
20260507053317 10 355 3.2 6.4 0.00 16.41 0.05 84 1013.5
20260507052837 10 244 4.8 6.4 0.00 16.41 0.05 85 1013.5
20260507052334 10 202 3.2 6.4 0.00 16.41 0.05 87 1013.5
20260507051833 10 262 4.8 6.4 0.00 16.41 0.05 88 1013.4
20260507051332 10 261 4.8 6.4 0.00 18.39 0.05 88 1013.3
20260507050831 10 310 3.2 6.4 0.00 18.39 0.05 87 1013.4
20260507050330 10 304 3.2 11.3 0.00 18.39 0.05 86 1013.3
20260507045829 10 240 6.4 11.3 0.00 18.39 0.05 86 1013.3
20260507045329 10 224 4.8 8.0 0.00 18.39 0.05 85 1013.2
20260507044828 10 234 4.8 11.3 0.00 18.39 0.05 87 1013.3
20260507044327 9 278 4.8 11.3 0.00 18.39 0.05 88 1013.1
20260507043827 9 282 3.2 6.4 0.00 18.39 0.05 88 1013.1
20260507043326 9 223 3.2 4.8 0.00 18.39 0.05 88 1013.0
20260507042826 9 270 1.6 3.2 0.00 18.39 0.05 88 1012.9
20260507042325 10 275 0.0 4.8 0.00 18.39 0.05 88 1012.9
20260507041825 10 275 0.0 6.4 0.00 18.39 0.05 87 1012.9
20260507041326 10 282 4.8 11.3 0.00 18.59 0.05 87 1012.8
20260507040826 9 271 8.0 11.3 0.00 18.59 0.05 87 1012.7
20260507040325 9 272 4.8 9.7 0.00 18.59 0.05 88 1012.8
20260507035822 9 288 4.8 8.0 0.00 18.59 0.05 88 1012.8
20260507035323 9 280 6.4 8.0 0.00 18.59 0.05 88 1012.7
20260507034822 9 270 4.8 6.4 0.00 18.59 0.05 88 1012.8
20260507034318 9 285 4.8 6.4 0.00 18.59 0.05 88 1012.8
20260507033816 9 269 3.2 6.4 0.00 18.59 0.05 88 1012.8
20260507033316 9 284 4.8 6.4 0.00 18.59 0.05 87 1012.8
20260507032837 9 311 1.6 6.4 0.00 18.59 0.05 87 1012.7
20260507032336 9 270 3.2 6.4 0.00 18.59 0.05 88 1012.9
20260507031831 9 196 4.8 6.4 0.00 18.59 0.05 87 1012.9
20260507031330 9 355 1.6 8.0 0.00 18.59 0.05 87 1012.9
20260507030851 9 355 4.8 8.0 0.00 18.59 0.05 87 1012.7
20260507030350 9 311 4.8 11.3 0.00 18.59 0.05 87 1012.8
20260507025829 9 298 3.2 8.0 0.00 18.59 0.05 88 1012.7
20260507025326 9 311 4.8 8.0 0.00 18.59 0.05 88 1012.7
20260507024825 9 265 4.8 8.0 0.00 18.59 0.05 88 1012.6
20260507024323 9 261 4.8 8.0 0.10 18.59 0.05 88 1012.6
20260507023822 9 279 3.2 6.4 0.10 18.59 0.05 88 1012.7
20260507023321 9 250 3.2 6.4 0.10 18.59 0.05 88 1012.6
20260507022820 9 275 4.8 6.4 0.10 18.59 0.05 88 1012.6
20260507022318 9 252 4.8 6.4 0.10 18.59 0.05 89 1012.6
20260507021820 9 251 3.2 4.8 0.10 18.59 0.05 89 1012.6
20260507021320 9 282 3.2 4.8 0.10 18.59 0.05 88 1012.6
20260507020819 9 279 0.0 4.8 0.10 18.59 0.05 88 1012.7
20260507020316 9 326 0.0 8.0 0.10 18.59 0.05 88 1012.6
20260507015837 9 61 4.8 8.0 0.10 18.59 0.05 88 1012.5
20260507015315 9 302 3.2 6.4 0.10 18.59 0.05 88 1012.5
20260507014833 9 275 3.2 6.4 0.10 18.59 0.05 89 1012.4
20260507014332 9 277 0.0 4.8 0.00 18.49 0.03 88 1012.4
20260507013853 9 275 3.2 6.4 0.00 18.49 0.03 88 1012.5
20260507013328 9 276 4.8 6.4 0.00 18.49 0.03 89 1012.5
20260507012827 9 14 0.0 4.8 0.00 18.49 0.03 87 1012.4
20260507012326 9 32 3.2 4.8 0.00 18.49 0.03 88 1012.5
20260507011824 9 255 0.0 4.8 0.00 18.49 0.03 87 1012.4
20260507011323 9 304 3.2 4.8 0.00 18.49 0.03 87 1012.3
20260507010821 9 302 3.2 4.8 0.00 18.49 0.03 88 1012.4
20260507010340 9 74 0.0 4.8 0.00 18.49 0.03 88 1012.4
20260507005817 9 331 0.0 4.8 0.00 18.49 0.03 87 1012.4
20260507005315 9 301 0.0 6.4 0.00 18.49 0.03 88 1012.5
20260507004815 9 290 1.6 6.4 0.00 18.49 0.03 88 1012.4
20260507004315 9 254 3.2 8.0 0.00 18.49 0.03 87 1012.6
20260507003815 9 280 6.4 11.3 0.00 18.49 0.03 87 1012.6
20260507003315 9 262 6.4 8.0 0.00 18.49 0.03 87 1012.7
20260507002831 9 285 4.8 14.5 0.10 18.49 0.03 86 1012.7
20260507002329 9 263 9.7 12.9 0.10 18.49 0.03 87 1012.7
20260507001829 9 270 9.7 12.9 0.10 18.49 0.03 88 1012.7
20260507001330 9 272 6.4 8.0 0.10 18.59 0.03 88 1012.8
20260507000829 9 239 6.4 8.0 0.10 18.59 0.03 87 1012.8
20260507000329 9 262 3.2 4.8 0.10 18.59 0.03 88 1012.8
20260506235829 9 344 1.6 4.8 0.10 18.59 0.03 87 1012.7
20260506235343 9 305 1.6 3.2 0.10 18.59 0.03 87 1012.8
20260506234820 9 305 0.0 4.8 0.10 18.59 0.03 87 1012.7
20260506234318 9 315 3.2 4.8 0.10 18.59 0.03 87 1012.6
20260506233818 9 250 3.2 6.4 0.10 18.59 0.03 87 1012.7
20260506233317 9 252 3.2 9.7 0.10 18.59 0.03 86 1012.7
20260506232816 9 261 3.2 6.4 0.00 18.49 0.00 86 1012.6
20260506232336 9 234 3.2 9.7 0.00 18.49 0.00 87 1012.7
20260506231814 9 282 4.8 9.7 0.00 18.49 0.00 87 1012.8
20260506231332 9 293 3.2 4.8 0.00 18.49 0.00 87 1012.8
20260506230830 9 331 0.0 4.8 0.00 18.49 0.00 86 1012.7
20260506230326 9 313 1.6 4.8 0.00 18.49 0.00 88 1012.6
20260506225844 9 264 3.2 6.4 0.00 18.49 0.00 87 1012.6
20260506225324 9 254 4.8 8.0 0.00 18.49 0.00 87 1012.7
20260506224824 9 277 4.8 11.3 0.00 18.49 0.00 86 1012.6
20260506224322 9 260 4.8 14.5 0.00 18.49 0.00 87 1012.6
20260506223821 8 271 9.7 12.9 0.10 18.49 0.00 88 1012.7
20260506223320 8 275 4.8 6.4 0.10 18.49 0.00 88 1012.7
20260506222816 8 303 3.2 6.4 0.10 18.49 0.00 88 1012.8
20260506222314 9 321 4.8 6.4 0.20 18.49 0.00 88 1012.7
20260506221832 9 269 3.2 6.4 0.30 18.49 0.00 88 1012.8
20260506221313 9 294 4.8 6.4 0.30 20.09 3.71 88 1012.8
20260506220813 9 292 3.2 6.4 0.30 20.09 3.71 88 1012.8
20260506220312 9 229 4.8 6.4 0.30 20.09 3.71 87 1012.8
20260506215832 9 303 3.2 6.4 0.30 20.09 3.71 85 1012.8
20260506215331 9 329 1.6 3.2 0.30 20.09 3.71 85 1012.9
20260506214850 9 339 1.6 8.0 0.30 20.09 3.71 85 1012.9
20260506214329 9 300 4.8 6.4 0.30 20.09 3.71 87 1012.8
20260506213848 9 289 1.6 6.4 0.20 19.99 3.68 88 1012.9
20260506213326 9 279 0.0 6.4 0.20 19.99 3.68 87 1012.8
20260506212825 9 258 4.8 8.0 0.20 19.99 3.68 88 1013.0
20260506212325 10 280 4.8 12.9 0.10 19.89 3.66 88 1012.8
20260506211844 9 290 9.7 12.9 0.00 19.81 3.63 87 1012.9
20260506211321 10 261 9.7 12.9 0.00 19.89 3.63 88 1012.9
20260506210821 10 263 8.0 11.3 0.00 19.89 3.63 87 1012.8
20260506210322 10 282 6.4 11.3 0.00 19.89 3.63 87 1012.8
20260506205820 10 300 6.4 11.3 0.00 19.89 3.63 86 1012.9
20260506205320 10 84 4.8 8.0 0.00 19.89 3.63 84 1012.8
20260506204820 10 266 3.2 8.0 0.00 19.89 3.63 85 1012.8
20260506204320 10 259 4.8 12.9 0.00 19.89 3.63 84 1012.9
20260506203820 10 355 3.2 14.5 0.00 19.89 3.63 83 1012.9
20260506203318 10 5 6.4 16.1 0.00 19.89 3.63 82 1012.8
20260506202819 10 38 4.8 19.3 0.00 19.89 3.63 84 1012.8
20260506202319 10 275 1.6 4.8 0.00 19.89 3.63 88 1012.8
20260506201819 10 229 1.6 8.0 0.00 19.89 3.63 88 1012.7
20260506201319 10 224 6.4 9.7 0.00 19.99 3.63 88 1012.5
20260506200838 10 90 0.0 4.8 0.00 19.99 3.63 89 1012.6
20260506200317 10 90 3.2 6.4 0.00 19.99 3.63 89 1012.6
20260506195816 10 33 3.2 6.4 0.00 19.99 3.63 89 1012.6
20260506195336 10 232 1.6 6.4 0.00 19.99 3.63 87 1012.5
20260506194816 10 80 3.2 9.7 0.00 19.99 3.63 87 1012.3
20260506194316 10 298 4.8 9.7 0.00 19.99 3.63 86 1012.4
20260506193814 10 17 4.8 9.7 0.00 19.99 3.63 85 1012.2
20260506193312 10 53 3.2 9.7 0.00 19.99 3.63 86 1012.0